Retour au catalogue

COSMOS 2292

ActifMilitairePO
NORAD 23278·PAYLOAD·🇷🇺 Russia

Lancé Sep 27, 1994 depuis Plesetsk Cosmodrome

Loading…

Prochains Passages (prochaines 24 heures)

TLE

FraisSource: Space-Track

Époque: Sep 14, 2026, 13:55 UTC

1 23278U 94061A   26257.58049832  .00001442  00000-0  11872-3 0  9996
2 23278  82.9736 206.2539 0815192 262.8836  87.9041 13.71416796570250

Suivez COSMOS 2292 en temps réel avec AllMySat

Download on the App Store